Torna al catalogo

STARLINK-35614

AttivoComunicazioniVLEO
NORAD 66164·PAYLOAD·🇺🇸 United States

Lanciato Oct 25, 2025 da Cape Canaveral Space Force Station

Loading…

Prossimi Passaggi (prossime 24 ore)

TLE

AggiornatoSource: CelesTrak SupGP

Epoca: Sep 15, 2026, 03:58 UTC

1 66164C 25240U   26258.16576389 -.00043736  00000+0 -12920-2 0  2582
2 66164  53.1572 258.7256 0001205  94.7275 286.3478 15.34416527    12

Traccia STARLINK-35614 in tempo reale con AllMySat

Download on the App Store